Natchez, MS

4:52 PM CST on November 19, 2019 (GMT -0600)
Hardy-Anders-Adams County

Weather History for KHEZ - September, 2019

Change the Weather History Date:

Sunday, September 1, 2019

  Actual Average Record
Temperature  
Mean Temperature 80 °F -  
Max Temperature 91 °F 90 °F 102 °F (2000)
Min Temperature 68 °F 69 °F 59 °F (1946)
Cooling Degree Days 14    
Growing Degree Days 30 (Base 50)    
Moisture  
Dew Point 71 °F    
Average Humidity 76    
Maximum Humidity 96    
Minimum Humidity 52    
Precipitation  
Precipitation 0.00 in - - ()
Sea Level Pressure  
Sea Level Pressure 30.02 in    
Wind  
Wind Speed 4 mph (NE)    
Max Wind Speed 12 mph    
Max Gust Speed 20 mph    
Visibility 10 miles    
Events      
Averages and records for this station are not official NWS values.
T = Trace of Precipitation, MM = Missing Value Source: NWS Daily Summary

Daily Weather History Graph

Daily Weather History Graph

Search for Another Location

Airport or City:

Astronomy

Sep. 01, 2019 Rise Set
Actual Time 6:40 AM CDT 7:29 PM CDT
Civil Twilight 6:15 AM CDT 7:53 PM CDT
Nautical Twilight 5:46 AM CDT 8:23 PM CDT
Astronomical Twilight 5:16 AM CDT 8:53 PM CDT
Moon 9:04 AM CDT (9/1) 9:26 PM CDT (9/1)
Length of Visible Light 13h 38m
Length of Day
12h 48m
Waxing Crescent, 8% of the Moon is Illuminated
Sep 1
Waxing Crescent
Sep 5
First Quarter
Sep 13
Full
Sep 21
Last Quarter
Sep 28
New

Hourly Weather History & Observations

Time (CDT) Temp. Heat Index Dew Point Humidity Pressure Visibility Wind Dir Wind Speed Gust Speed Precip Events Conditions
12:56 AM 69.1 °F - 68.0 °F 96% 30.04 in 10.0 mi North 3.5 mph - N/A   Clear
1:56 AM 70.0 °F - 68.0 °F 93% 30.04 in 10.0 mi ENE 3.5 mph - N/A   Clear
2:56 AM 73.9 °F - 66.9 °F 79% 30.02 in 10.0 mi ENE 4.6 mph - N/A   Clear
3:56 AM 70.0 °F - 66.9 °F 90% 30.02 in 10.0 mi North 3.5 mph - N/A   Clear
4:56 AM 68.0 °F - 66.0 °F 93% 30.02 in 10.0 mi North 4.6 mph - N/A   Clear
5:56 AM 69.1 °F - 66.9 °F 93% 30.02 in 10.0 mi Calm Calm - N/A   Clear
6:56 AM 68.0 °F - 66.9 °F 96% 30.05 in 10.0 mi Calm Calm - N/A   Clear
7:56 AM 73.0 °F - 69.1 °F 87% 30.06 in 10.0 mi Calm Calm - N/A   Clear
8:56 AM 79.0 °F - 72.0 °F 79% 30.06 in 10.0 mi Calm Calm - N/A   Clear
9:56 AM 84.0 °F 91.2 °F 73.9 °F 72% - 10.0 mi ENE 3.5 mph - N/A   Clear
10:56 AM 88.0 °F 95.6 °F 73.0 °F 61% 30.07 in 10.0 mi NE 6.9 mph - N/A   Clear
11:56 AM 89.1 °F 97.0 °F 73.0 °F 59% 30.07 in 10.0 mi ENE 8.1 mph - N/A   Scattered Clouds
12:56 PM 90.0 °F 96.9 °F 72.0 °F 55% 30.05 in 10.0 mi NE 10.4 mph - N/A   Partly Cloudy
1:56 PM 90.0 °F 97.9 °F 73.0 °F 57% 30.03 in 10.0 mi North 11.5 mph - N/A   Mostly Cloudy
2:56 PM 91.0 °F 98.2 °F 72.0 °F 53% 30.01 in 10.0 mi NE 10.4 mph - N/A   Partly Cloudy
3:12 PM 91.4 °F 98.4 °F 71.6 °F 52% 30.01 in 10.0 mi NE 11.5 mph 19.6 mph N/A   Scattered Clouds
3:56 PM 91.0 °F 98.2 °F 72.0 °F 53% 30.00 in 10.0 mi East 11.5 mph - N/A   Scattered Clouds
4:56 PM 91.0 °F 99.3 °F 73.0 °F 55% 29.99 in 10.0 mi East 8.1 mph - N/A   Scattered Clouds
5:41 PM 86.0 °F 91.8 °F 71.6 °F 62% 30.00 in 10.0 mi Calm Calm - N/A   Scattered Clouds
5:56 PM 84.9 °F 93.3 °F 75.0 °F 72% 30.00 in 10.0 mi South 5.8 mph - N/A   Partly Cloudy
6:56 PM 84.9 °F 91.4 °F 73.0 °F 67% 29.99 in 10.0 mi Calm Calm - N/A   Clear
7:56 PM 80.1 °F 84.2 °F 73.0 °F 79% 29.99 in 10.0 mi Calm Calm - N/A   Clear
8:56 PM 77.0 °F - 73.9 °F 90% 30.01 in 10.0 mi Calm Calm - N/A   Scattered Clouds
9:56 PM 75.9 °F - 73.0 °F 91% 30.02 in 10.0 mi Calm Calm - N/A   Clear
10:56 PM 75.0 °F - 73.0 °F 94% 30.03 in 10.0 mi Calm Calm - N/A   Clear
11:56 PM 73.0 °F - 72.0 °F 96% 30.02 in 10.0 mi Calm Calm - N/A   Clear